Location: City of Moscow
(46.7306°N, 116.9989°W)
Time: 07:46:02
(UTC+00:00)

USA 234 - Pass Details

Date: 13 March 2026
Orbit: 1102 x 1106 km, 123.0° (Epoch: 4 January)

Event Time Altitude Azimuth Distance (km) Brightness Sun altitude
Exits shadow 05:15:33 73° 324° (NW) 1,154 3.3 -33.9°
Drops below altitude 10° 05:21:25 10° 308° (NW) 2,970 6.3 -34.7°
Sets 05:23:54 0° 308° (NW) 3,931 7.2 -35.0°
